EXPRESS-AT2

Last updated on Thu Nov 21 2024 00:02:42 GMT+0000 (Coordinated Universal Time)

1 39613U 14010B 24324.89416451 -.00000280 00000+0 00000+0 0 9990 2 39613 0.0145 285.0639 0001718 356.4592 239.6483 1.00272502 38744
UTC large
Height (km)
Speed (km/s)
/
Latitude / Longitude
Inclination (degrees)
Orbital Period (minutes)
Azimuth
Elevation
Range (km)
Doppler Factor

Next 0 passes for location: London (51.5072 / 0.1276)

Sorry there are no passes over London.